TimeCST,TemperatureF,Dew PointF,Humidity,Sea Level PressureIn,VisibilityMPH,Wind Direction,Wind SpeedMPH,Gust SpeedMPH,PrecipitationIn,Events,Conditions,WindDirDegrees,DateUTC
12:15 AM,57.2,46.4,67,29.92,10.0,South,11.5,-,N/A,,Clear,190,2013-01-12 06:15:00
12:35 AM,55.4,46.4,72,29.92,10.0,South,10.4,-,N/A,,Clear,180,2013-01-12 06:35:00
12:55 AM,55.4,46.4,72,29.93,10.0,South,10.4,-,N/A,,Clear,180,2013-01-12 06:55:00
1:15 AM,55.4,46.4,72,29.93,10.0,South,11.5,-,N/A,,Clear,190,2013-01-12 07:15:00
1:35 AM,55.4,46.4,72,29.94,10.0,South,9.2,-,N/A,,Clear,190,2013-01-12 07:35:00
2:15 AM,53.6,46.4,77,29.94,10.0,South,6.9,-,N/A,,Clear,190,2013-01-12 08:15:00
2:35 AM,53.6,44.6,72,29.95,10.0,South,5.8,-,N/A,,Partly Cloudy,190,2013-01-12 08:35:00
2:55 AM,53.6,44.6,72,29.94,10.0,South,4.6,-,N/A,,Scattered Clouds,190,2013-01-12 08:55:00
3:15 AM,53.6,44.6,72,29.94,10.0,SSW,6.9,-,N/A,,Mostly Cloudy,210,2013-01-12 09:15:00
3:35 AM,55.4,48.2,77,29.94,10.0,SSW,6.9,-,N/A,,Overcast,200,2013-01-12 09:35:00
3:55 AM,55.4,48.2,77,29.94,10.0,SSW,4.6,-,N/A,,Overcast,210,2013-01-12 09:55:00
4:15 AM,55.4,48.2,77,29.94,10.0,SSW,5.8,-,N/A,,Overcast,210,2013-01-12 10:15:00
4:35 AM,55.4,48.2,77,29.94,10.0,SSW,5.8,-,N/A,,Overcast,200,2013-01-12 10:35:00
4:55 AM,57.2,50.0,77,29.94,10.0,SSW,8.1,-,N/A,,Overcast,210,2013-01-12 10:55:00
5:15 AM,57.2,51.8,82,29.95,10.0,SSW,10.4,-,N/A,,Overcast,210,2013-01-12 11:15:00
5:35 AM,57.2,51.8,82,29.95,10.0,SSW,10.4,-,N/A,,Overcast,210,2013-01-12 11:35:00
6:15 AM,59.0,51.8,77,29.97,10.0,SSW,11.5,-,N/A,,Overcast,210,2013-01-12 12:15:00
6:35 AM,57.2,51.8,82,29.96,10.0,SSW,8.1,-,N/A,,Mostly Cloudy,210,2013-01-12 12:35:00
6:55 AM,57.2,48.2,72,29.97,10.0,SSW,4.6,-,N/A,,Mostly Cloudy,210,2013-01-12 12:55:00
7:15 AM,55.4,48.2,77,29.97,10.0,SSW,5.8,-,N/A,,Mostly Cloudy,200,2013-01-12 13:15:00
7:35 AM,55.4,48.2,77,29.98,10.0,South,5.8,-,N/A,,Mostly Cloudy,190,2013-01-12 13:35:00
7:55 AM,57.2,50.0,77,29.98,10.0,South,6.9,-,N/A,,Mostly Cloudy,180,2013-01-12 13:55:00
8:15 AM,57.2,50.0,77,29.98,10.0,South,3.5,-,N/A,,Mostly Cloudy,170,2013-01-12 14:15:00
8:35 AM,57.2,51.8,82,29.98,10.0,Calm,Calm,-,N/A,,Mostly Cloudy,0,2013-01-12 14:35:00
8:55 AM,60.8,51.8,72,29.98,10.0,South,3.5,-,N/A,,Partly Cloudy,170,2013-01-12 14:55:00
9:15 AM,60.8,53.6,77,29.98,10.0,South,4.6,-,N/A,,Clear,170,2013-01-12 15:15:00
9:35 AM,62.6,55.4,77,29.98,10.0,South,5.8,-,N/A,,Scattered Clouds,180,2013-01-12 15:35:00
9:55 AM,64.4,55.4,73,29.98,10.0,South,10.4,-,N/A,,Mostly Cloudy,190,2013-01-12 15:55:00
10:15 AM,66.2,57.2,73,29.98,10.0,South,9.2,-,N/A,,Mostly Cloudy,190,2013-01-12 16:15:00
10:35 AM,66.2,55.4,68,29.96,10.0,South,6.9,-,N/A,,Partly Cloudy,190,2013-01-12 16:35:00
10:55 AM,66.2,55.4,68,29.96,10.0,South,8.1,-,N/A,,Clear,190,2013-01-12 16:55:00
11:15 AM,64.4,55.4,73,29.95,10.0,South,5.8,-,N/A,,Scattered Clouds,180,2013-01-12 17:15:00
11:55 AM,64.4,55.4,73,29.94,10.0,SSW,6.9,-,N/A,,Overcast,200,2013-01-12 17:55:00
12:15 PM,64.4,55.4,73,29.93,10.0,Calm,Calm,-,N/A,,Overcast,0,2013-01-12 18:15:00
12:35 PM,64.4,55.4,73,29.91,10.0,East,4.6,-,N/A,,Overcast,100,2013-01-12 18:35:00
12:55 PM,64.4,55.4,73,29.90,10.0,East,4.6,-,N/A,,Overcast,100,2013-01-12 18:55:00
1:35 PM,64.4,55.4,73,29.88,10.0,ESE,5.8,-,N/A,,Overcast,120,2013-01-12 19:35:00
1:55 PM,64.4,55.4,73,29.86,10.0,East,5.8,-,N/A,,Overcast,100,2013-01-12 19:55:00
2:15 PM,64.4,55.4,73,29.85,10.0,East,5.8,-,N/A,,Overcast,90,2013-01-12 20:15:00
2:35 PM,64.4,55.4,73,29.84,10.0,East,5.8,-,N/A,,Overcast,100,2013-01-12 20:35:00
2:55 PM,64.4,55.4,73,29.84,4.0,SE,4.6,-,0.06,,Overcast,130,2013-01-12 20:55:00
3:15 PM,64.4,55.4,73,29.83,3.0,SE,5.8,-,0.13,,Overcast,130,2013-01-12 21:15:00
3:35 PM,64.4,55.4,73,29.82,2.0,East,9.2,-,0.56,,Mostly Cloudy,100,2013-01-12 21:35:00
3:55 PM,64.4,57.2,77,29.78,3.0,SE,11.5,18.4,0.72,,Scattered Clouds,130,2013-01-12 21:55:00
4:15 PM,-9999,-9999,N/A,29.81,6.0,SSW,20.7,36.8,0.14,,Mostly Cloudy,210,2013-01-12 22:15:00
4:35 PM,62.6,57.2,82,29.81,8.0,SW,5.8,-,0.31,,Mostly Cloudy,220,2013-01-12 22:35:00
4:55 PM,64.4,55.4,73,29.81,5.0,SW,13.8,-,0.45,,Mostly Cloudy,220,2013-01-12 22:55:00
5:15 PM,64.4,57.2,77,29.80,10.0,South,9.2,-,N/A,,Mostly Cloudy,180,2013-01-12 23:15:00
5:35 PM,64.4,57.2,77,29.79,10.0,South,11.5,-,N/A,,Overcast,170,2013-01-12 23:35:00
5:55 PM,64.4,57.2,77,29.78,10.0,SSE,12.7,-,N/A,,Mostly Cloudy,160,2013-01-12 23:55:00
6:15 PM,64.4,57.2,77,29.78,10.0,South,13.8,-,N/A,,Overcast,170,2013-01-13 00:15:00
6:35 PM,64.4,57.2,77,29.77,10.0,South,15.0,-,N/A,,Overcast,170,2013-01-13 00:35:00
7:15 PM,66.2,57.2,73,29.77,10.0,South,17.3,-,N/A,,Overcast,170,2013-01-13 01:15:00
7:35 PM,66.2,55.4,68,29.77,10.0,South,13.8,-,N/A,,Overcast,170,2013-01-13 01:35:00
7:55 PM,66.2,57.2,73,29.76,10.0,South,16.1,-,N/A,,Overcast,170,2013-01-13 01:55:00
8:15 PM,66.2,57.2,73,29.76,10.0,SSE,16.1,-,N/A,,Overcast,160,2013-01-13 02:15:00
8:35 PM,66.2,57.2,73,29.75,10.0,SSE,18.4,24.2,N/A,,Mostly Cloudy,160,2013-01-13 02:35:00
8:55 PM,66.2,57.2,73,29.74,10.0,SSE,17.3,23.0,N/A,,Mostly Cloudy,160,2013-01-13 02:55:00
9:15 PM,66.2,57.2,73,29.72,10.0,SSE,17.3,23.0,N/A,,Overcast,160,2013-01-13 03:15:00
9:35 PM,66.2,57.2,73,29.71,10.0,SSE,18.4,27.6,N/A,,Overcast,160,2013-01-13 03:35:00
9:55 PM,66.2,57.2,73,29.70,10.0,SSE,17.3,24.2,N/A,,Mostly Cloudy,160,2013-01-13 03:55:00
10:15 PM,66.2,57.2,73,29.70,10.0,South,21.9,28.8,N/A,,Overcast,170,2013-01-13 04:15:00
10:35 PM,66.2,57.2,73,29.71,10.0,South,16.1,27.6,N/A,,Overcast,180,2013-01-13 04:35:00
10:55 PM,66.2,57.2,73,29.71,10.0,South,17.3,21.9,N/A,,Overcast,190,2013-01-13 04:55:00
11:15 PM,62.6,53.6,72,29.75,10.0,West,17.3,28.8,0.04,,Overcast,280,2013-01-13 05:15:00
11:35 PM,60.8,51.8,72,29.77,4.0,West,12.7,-,0.54,,Mostly Cloudy,280,2013-01-13 05:35:00
11:55 PM,59.0,48.2,67,29.78,9.0,WNW,11.5,-,0.75,Thunderstorm,Thunderstorm,290,2013-01-13 05:55:00